Pompano Beach, FL

1:07 PM EST on February 08, 2016 (GMT -0500)
Pompano Beach

Weather History for KPMP - July, 2013

Change the Weather History Date:

Tuesday, July 30, 2013

  Actual Average (KFLL) Record (KFLL)
Temperature  
Mean Temperature 84 °F 85 °F  
Max Temperature 90 °F 91 °F 96 °F (1915)
Min Temperature 78 °F 79 °F 69 °F (1928)
Degree Days  
Heating Degree Days 0 0  
Month to date heating degree days 0  
Since 1 June heating degree days 0  
Since 1 July heating degree days 0  
Cooling Degree Days 19 20  
Month to date cooling degree days 581  
Year to date cooling degree days 2542  
Since 1 June cooling degree days 1124  
Growing Degree Days 34 (Base 50)    
Moisture  
Dew Point 75 °F    
Average Humidity 75    
Maximum Humidity 88    
Minimum Humidity 65    
Precipitation  
Precipitation 0.13 in 0.18 in 2.50 in (1933)
Month to date precipitation 5.80  
Year to date precipitation 33.45  
Snow  
Snow 0.00 in - - ()
Month to date snowfall  
Since 1 June snowfall  
Since 1 July snowfall  
Snow Depth -    
Sea Level Pressure  
Sea Level Pressure 30.12 in    
Wind  
Wind Speed 8 mph (East)    
Max Wind Speed 14 mph    
Max Gust Speed 21 mph    
Visibility 9 miles    
Events Rain , Thunderstorm    
T = Trace of Precipitation, MM = Missing Value Source: NWS Daily Summary

Daily Weather History Graph

Daily Weather History Graph

Search for Another Location

Airport or City:

Trip Planner

Search our weather history database for the weather conditions in past years. The results will help you decide how hot, cold, wet, or windy it might be!

Date:

Astronomy

Jul. 30, 2013 Rise Set
Actual Time 6:45 AM EDT 8:08 PM EDT
Civil Twilight 6:20 AM EDT 8:33 PM EDT
Nautical Twilight 5:50 AM EDT 9:02 PM EDT
Astronomical Twilight 5:19 AM EDT 9:33 PM EDT
Moon 12:57 AM EDT (7/30) 2:28 PM EDT (7/30)
Length of Visible Light 14h 13m
Length of Day
13h 23m
Last Quarter, 41% of the Moon is Illuminated
Jul 30
Last Quarter
Aug 6
New
Aug 14
First Quarter
Aug 20
Full
Aug 28
Last Quarter

Hourly Weather History & Observations

Time (EDT) Temp. Heat Index Dew Point Humidity Pressure Visibility Wind Dir Wind Speed Gust Speed Precip Events Conditions
12:53 AM 84.9 °F 95.3 °F 77.0 °F 77% 30.14 in 10.0 mi East 9.2 mph - N/A   Unknown
1:53 AM 84.9 °F 95.3 °F 77.0 °F 77% 30.13 in 10.0 mi East 6.9 mph - N/A   Unknown
2:53 AM 84.9 °F 95.3 °F 77.0 °F 77% 30.12 in 10.0 mi East 6.9 mph - N/A   Unknown
3:44 AM 84.2 °F 92.3 °F 75.2 °F 74% 30.11 in 10.0 mi East 5.8 mph - 0.00 in Thunderstorm Unknown
3:53 AM 84.0 °F 91.9 °F 75.0 °F 74% 30.11 in 10.0 mi East 6.9 mph - 0.00 in   Unknown
4:06 AM 84.2 °F 92.3 °F 75.2 °F 74% 30.10 in 10.0 mi ESE 6.9 mph - N/A Thunderstorm Unknown
4:31 AM 84.2 °F 92.3 °F 75.2 °F 74% 30.11 in 2.5 mi SE 9.2 mph - 0.06 in Rain , Thunderstorm Light Rain
4:39 AM 80.6 °F 85.4 °F 73.4 °F 79% 30.11 in 3.0 mi South 6.9 mph 20.7 mph 0.12 in Rain , Thunderstorm Heavy Rain
4:44 AM 80.6 °F 85.4 °F 73.4 °F 79% 30.10 in 3.0 mi Calm Calm - 0.12 in Rain Light Rain
4:53 AM 80.1 °F 85.1 °F 75.0 °F 85% 30.11 in 9.0 mi NE 4.6 mph - 0.13 in Rain , Thunderstorm Light Rain
5:18 AM 78.8 °F - 73.4 °F 83% 30.12 in 2.5 mi NNE 6.9 mph - 0.09 in Rain , Thunderstorm Light Thunderstorms and Rain
5:25 AM 78.8 °F - 73.4 °F 83% 30.12 in 10.0 mi Calm Calm - 0.09 in Thunderstorm Unknown
5:37 AM 78.8 °F - 73.4 °F 83% 30.11 in 4.0 mi NNW 5.8 mph - N/A Rain Light Rain
5:53 AM 78.1 °F - 73.9 °F 87% 30.10 in 7.0 mi North 5.8 mph - N/A Rain , Thunderstorm Light Rain
6:02 AM 78.8 °F - 73.4 °F 83% 30.10 in 10.0 mi NNE 3.5 mph - 0.00 in   Unknown
6:53 AM 79.0 °F - 75.0 °F 88% 30.12 in 10.0 mi NNE 3.5 mph - N/A   Unknown
7:36 AM 84.2 °F 92.3 °F 75.2 °F 74% 30.12 in 10.0 mi East 6.9 mph - N/A Thunderstorm Clear
7:51 AM 84.2 °F 92.3 °F 75.2 °F 74% 30.12 in 10.0 mi East 6.9 mph - N/A   Clear
7:53 AM 84.9 °F 94.1 °F 75.9 °F 74% 30.13 in 10.0 mi East 4.6 mph - N/A   Clear
8:53 AM 87.1 °F 98.8 °F 77.0 °F 72% 30.15 in 10.0 mi East 9.2 mph - N/A   Partly Cloudy
9:53 AM 87.1 °F 98.8 °F 77.0 °F 72% 30.17 in 10.0 mi ESE 8.1 mph - N/A   Scattered Clouds
10:53 AM 88.0 °F 100.2 °F 77.0 °F 70% 30.17 in 10.0 mi East 13.8 mph - N/A   Scattered Clouds
11:53 AM 89.1 °F 100.2 °F 75.9 °F 65% 30.17 in 10.0 mi East 11.5 mph - N/A   Clear
12:53 PM 89.1 °F 100.2 °F 75.9 °F 65% 30.16 in 10.0 mi ESE 13.8 mph - N/A   Partly Cloudy
1:53 PM 89.1 °F 100.2 °F 75.9 °F 65% 30.15 in 10.0 mi East 11.5 mph - N/A   Scattered Clouds
2:53 PM 89.1 °F 100.2 °F 75.9 °F 65% 30.14 in 10.0 mi ENE 13.8 mph - N/A   Clear
3:53 PM 90.0 °F 102.5 °F 77.0 °F 65% 30.12 in 10.0 mi ENE 11.5 mph - N/A   Partly Cloudy
4:53 PM 89.1 °F 100.2 °F 75.9 °F 65% 30.11 in 10.0 mi East 13.8 mph - N/A   Partly Cloudy
5:53 PM - - - N/A% 30.10 in 10.0 mi East 11.5 mph - N/A   Unknown
6:53 PM - - - N/A% 30.10 in 10.0 mi East 8.1 mph - N/A   Unknown
8:53 PM - - - N/A% 30.13 in - East 10.4 mph - N/A   Unknown
9:53 PM - - - N/A% 30.14 in - East 8.1 mph - N/A   Unknown
11:53 PM - - - N/A% 30.12 in - East 8.1 mph - N/A   Unknown